Location: Cheyres
(46.8153°N, 6.7877°E)
Time: 03:01:12
(UTC+00:00)

Cosmos 494 Rocket - Pass Details

Date: 11 May 2021
Orbit: 743 x 770 km, 74.1° (Epoch: 18 June)

Event Time Altitude Azimuth Distance (km) Brightness Sun altitude
Rises 23:11:49 0° 339° (NNW) 3,229 8.5 -24.9°
Reaches altitude 10° 23:14:14 10° 343° (NNW) 2,295 7.5 -25.0°
Maximum altitude 23:19:24 67° 66° (ENE) 819 4.1 -25.0°
Enters shadow 23:20:06 59° 109° (ESE) 868 4.1 -25.0°
